DW8618 Nerja ES current weather conditions

sailwx.info

Wind from 294 at 3 knots gusting 5

Air temperature 11.1° C
Dewpoint 6.3° C

Last reported at 2017-Feb-28 04:46 UTC.
Time now 2017-Feb-28 05:41 UTC

Location: N 36°46' W 003°52'.
View on Google Maps.

See reports from other nearby stations

  
Tides and Currents Weather Stations Pressure Air Temp Water Temp Dewpoint Dewpoint Depression Visibility Wind Speed Wind Dir Waves Ship Positions
date/time (UTC)wind fromknots sea level pressurealtimeterstation pressurevisibilityair tempwater tempwave heightnotes
2017-Feb-28 04:46 294 3 gusting 5 11.1
2017-Feb-28 04:30 292 3 gusting 5 11.1
2017-Feb-28 04:15 292 2 gusting 4 11.7
2017-Feb-28 04:01 292 11.7
2017-Feb-28 03:45 292 0 gusting 5 11.7
2017-Feb-28 03:30 292 0 gusting 5 12.2
2017-Feb-28 03:16 292 12.2
2017-Feb-28 03:01 292 0 gusting 3 12.8
2017-Feb-28 02:45 292 13.9
2017-Feb-28 02:30 292 13.9
2017-Feb-28 02:15 292 13.9
2017-Feb-28 02:01 292 13.9
2017-Feb-28 01:45 292 14.4
2017-Feb-28 01:30 292 14.4
2017-Feb-28 01:16 292 14.4
2017-Feb-28 01:01 292 14.4
2017-Feb-28 00:45 292 14.4
2017-Feb-28 00:30 292 14.4
2017-Feb-28 00:15 292 15.0
2017-Feb-28 00:01 292 15.0
2017-Feb-27 23:45 292 15.0
2017-Feb-27 23:30 292 15.0
2017-Feb-27 23:15 292 15.6
2017-Feb-27 23:01 292 15.6
2017-Feb-27 22:46 292 15.6
2017-Feb-27 22:30 292 15.6
2017-Feb-27 22:15 292 15.6
2017-Feb-27 22:01 292 16.1
2017-Feb-27 21:46 292 16.1
2017-Feb-27 21:30 292 1 gusting 3 16.7
2017-Feb-27 21:16 292 16.7
2017-Feb-27 21:01 280 1 gusting 6 16.1
2017-Feb-27 20:45 263 15.6
2017-Feb-27 20:31 263 15.6
2017-Feb-27 20:15 263 16.1
2017-Feb-27 20:01 263 16.1
2017-Feb-27 19:45 263 16.1
2017-Feb-27 19:30 263 16.7
2017-Feb-27 19:15 263 16.7
2017-Feb-27 19:01 263 16.7
2017-Feb-27 18:45 263 17.2
2017-Feb-27 18:31 263 17.2
2017-Feb-27 18:15 263 17.8
2017-Feb-27 18:01 263 17.8
2017-Feb-27 17:45 263 18.3
2017-Feb-27 17:30 262 1 gusting 4 18.9
2017-Feb-27 17:15 262 0 gusting 4 18.9
2017-Feb-27 17:01 262 18.9
2017-Feb-27 16:45 262 18.9
2017-Feb-27 16:30 262 19.4
2017-Feb-27 16:15 262 18.9
2017-Feb-27 16:01 262 19.4
2017-Feb-27 15:45 262 19.4
2017-Feb-27 15:30 262 19.4
2017-Feb-27 15:16 263 2 gusting 5 18.9
2017-Feb-27 15:01 263 3 gusting 6 18.9
2017-Feb-27 14:45 268 0 gusting 5 20.0
2017-Feb-27 14:30 268 0 gusting 3 20.0
2017-Feb-27 14:15 268 2 gusting 5 18.9
2017-Feb-27 14:01 268 0 gusting 2 19.4
2017-Feb-27 13:45 268 0 gusting 4 18.3
2017-Feb-27 13:31 271 18.9
2017-Feb-27 13:15 271 2 gusting 5 17.8
2017-Feb-27 13:01 277 0 gusting 4 17.8
2017-Feb-27 12:45 277 0 gusting 6 17.8
2017-Feb-27 12:30 278 1 gusting 6 18.3
2017-Feb-27 12:16 278 3 gusting 6 17.2
2017-Feb-27 12:01 279 2 gusting 5 17.2
2017-Feb-27 11:45 279 4 gusting 5 17.2
2017-Feb-27 11:30 279 0 gusting 5 16.7
2017-Feb-27 11:15 279 0 gusting 5 16.7
2017-Feb-27 11:01 279 16.1
2017-Feb-27 10:45 279 1 gusting 4 15.6
2017-Feb-27 10:30 279 15.0
2017-Feb-27 10:15 279 0 gusting 5 14.4
2017-Feb-27 10:01 280 0 gusting 3 14.4
2017-Feb-27 09:45 280 0 gusting 3 15.0
2017-Feb-27 09:30 280 15.0
2017-Feb-27 09:16 280 15.0
2017-Feb-27 09:01 280 14.4
2017-Feb-27 08:45 280 14.4
2017-Feb-27 08:30 280 12.2
2017-Feb-27 08:15 280 11.7
2017-Feb-27 08:01 280 11.1
2017-Feb-27 07:46 280 10.6
2017-Feb-27 07:30 280 0 gusting 3 10.0
2017-Feb-27 07:15 280 10.0
2017-Feb-27 07:01 280 10.0
2017-Feb-27 06:45 280 10.0
2017-Feb-27 06:30 280 10.0
2017-Feb-27 06:16 280 0 gusting 4 10.0
2017-Feb-27 06:01 280 1 gusting 3 10.6
2017-Feb-27 05:46 280 10.6
2017-Feb-27 05:30 280 10.6
2017-Feb-27 05:15 280 11.1
2017-Feb-27 05:01 280 11.1
2017-Feb-27 04:45 280 11.7
2017-Feb-27 04:30 280 12.2
2017-Feb-27 04:15 280 12.2
2017-Feb-27 04:01 280 12.2
2017-Feb-27 03:45 280 11.7
2017-Feb-27 03:31 280 11.7
2017-Feb-27 03:15 280 11.7
2017-Feb-27 03:01 280 11.7
2017-Feb-27 02:45 276 2 gusting 5 11.7
2017-Feb-27 02:30 273 3 gusting 6 11.7
2017-Feb-27 02:16 266 0 gusting 3 11.7
2017-Feb-27 02:01 266 0 gusting 6 11.7
2017-Feb-27 01:46 262 2 gusting 6 11.7
2017-Feb-27 01:16 233 0 gusting 2 11.7
2017-Feb-27 01:01 233 1 gusting 3 11.7
2017-Feb-27 00:45 233 1 gusting 2 11.7
2017-Feb-27 00:30 232 2 gusting 4 11.7
2017-Feb-27 00:15 229 12.2
2017-Feb-27 00:01 229 0 gusting 4 12.2
2017-Feb-26 23:45 214 12.2
2017-Feb-26 23:30 214 0 gusting 2 12.2
2017-Feb-26 23:16 214 0 gusting 2 12.2
2017-Feb-26 23:01 214 12.8
2017-Feb-26 22:46 214 12.8
2017-Feb-26 22:30 214 12.8
2017-Feb-26 22:15 214 13.3
2017-Feb-26 22:01 214 13.3
2017-Feb-26 21:45 214 13.3
2017-Feb-26 21:30 208 1 gusting 3 13.3
2017-Feb-26 21:15 202 12.8
2017-Feb-26 21:01 202 13.3
2017-Feb-26 20:45 202 13.9
2017-Feb-26 20:31 202 13.9
2017-Feb-26 20:15 202 0 gusting 2 13.9
2017-Feb-26 20:01 202 13.9
2017-Feb-26 19:45 202 14.4
2017-Feb-26 19:30 202 14.4
2017-Feb-26 19:15 202 14.4
2017-Feb-26 19:01 202 14.4
2017-Feb-26 18:45 202 15.0
2017-Feb-26 18:30 202 15.0
2017-Feb-26 18:15 202 15.0
2017-Feb-26 18:01 202 15.0
2017-Feb-26 17:45 202 15.0
2017-Feb-26 17:30 202 15.0
2017-Feb-26 17:16 202 1 gusting 4 15.6
2017-Feb-26 17:01 200 15.6
2017-Feb-26 16:45 198 15.6
2017-Feb-26 16:31 198 15.6
2017-Feb-26 16:15 196 3 gusting 6 15.6
2017-Feb-26 16:01 196 0 gusting 3 16.1
2017-Feb-26 15:46 196 15.6
2017-Feb-26 15:31 196 15.6
2017-Feb-26 15:15 196 1 gusting 4 15.6
2017-Feb-26 15:01 196 1 gusting 5 15.6
2017-Feb-26 14:46 196 0 gusting 4 15.6
2017-Feb-26 14:30 195 0 gusting 5 15.6
2017-Feb-26 14:15 190 2 gusting 5 15.6
2017-Feb-26 14:01 190 0 gusting 6 15.6
2017-Feb-26 13:45 189 15.6
2017-Feb-26 13:30 189 0 gusting 4 16.1
2017-Feb-26 13:15 190 1 gusting 4 16.1
2017-Feb-26 13:01 190 0 gusting 3 16.1
2017-Feb-26 12:45 189 0 gusting 3 15.6
2017-Feb-26 12:30 190 15.6
2017-Feb-26 12:15 186 15.6
2017-Feb-26 12:01 186 1 gusting 5 15.6
2017-Feb-26 11:45 186 15.6
2017-Feb-26 11:31 183 15.6
2017-Feb-26 11:15 182 16.7
2017-Feb-26 11:01 175 2 gusting 4 16.1
2017-Feb-26 10:45 130 1 gusting 4 16.7
2017-Feb-26 10:30 119 0 gusting 4 16.1
2017-Feb-26 10:15 355 1 gusting 4 16.1
2017-Feb-26 10:01 355 2 gusting 4 16.1
2017-Feb-26 09:45 355 1 gusting 3 15.6
2017-Feb-26 09:30 355 2 gusting 3 15.6
2017-Feb-26 09:16 355 15.6
2017-Feb-26 09:01 355 16.1
2017-Feb-26 08:45 355 15.0
2017-Feb-26 08:30 355 1 gusting 4 13.9
2017-Feb-26 08:15 355 1 gusting 4 13.3
2017-Feb-26 08:01 355 13.3
2017-Feb-26 07:46 355 0 gusting 3 12.8
2017-Feb-26 07:30 355 0 gusting 2 12.8
2017-Feb-26 07:15 355 2 gusting 5 12.8
2017-Feb-26 07:01 355 3 gusting 6 12.8
2017-Feb-26 06:45 355 2 gusting 6 12.8
2017-Feb-26 06:30 355 1 gusting 6 12.8
2017-Feb-26 06:15 350 2 gusting 6 12.8
2017-Feb-26 06:01 348 1 gusting 4 12.8
2017-Feb-26 05:45 349 0 gusting 3 12.8
2017-Feb-26 05:31 349 12.8
2017-Feb-26 05:15 349 12.2
2017-Feb-26 05:01 349 0 gusting 3 12.2